Weather Service Report


195 
ASUS42 KRAH 231610
RWRRAH
NORTH CAROLINA WEATHER ROUNDUP
NATIONAL WEATHER SERVICE RALEIGH NC
1200 PM EDT WED JUL 23 2014

NOTE: "FAIR" INDICATES FEW OR NO CLOUDS BELOW 12,000 FEET WITH NO
SIGNIFICANT WEATHER AND/OR OBSTRUCTIONS TO VISIBILITY.

NCZ001-053-055-056-065-067-231700-
WESTERN NORTH CAROLINA
  
CITY           SKY/WX    TMP DP  RH WIND       PRES   REMARKS
ASHEVILLE      CLOUDY    78  67  68 N8        30.16F                  
JEFFERSON      PTSUNNY   77  62  60 W7        30.19F                  
MORGANTON      MOSUNNY   82  68  63 CALM      30.14F                  
HICKORY        PTSUNNY   85  68  56 N3        30.09F                  
RUTHERFORDTON  MOSUNNY   82  71  70 W3        30.11F                  
MOUNT AIRY     SUNNY     85  71  63 SW5       30.07F                  
BOONE          MOSUNNY   77  62  58 W8G16     30.20F                  
$$
 
NCZ021-022-025-041-071-084-088-231700-
CENTRAL NORTH CAROLINA
  
CITY           SKY/WX    TMP DP  RH WIND       PRES   REMARKS
CHARLOTTE      MOSUNNY   84  70  62 CALM      30.08F                  
GREENSBORO     MOSUNNY   85  70  60 SW7       30.06F                  
WINSTON-SALEM  SUNNY     86  67  52 VRB7      30.08F                  
RALEIGH-DURHAM MOSUNNY   86  71  60 SW6       30.05F                  
FORT BRAGG     SUNNY     87  72  61 W3        30.04F                  
FAYETTEVILLE   PTSUNNY   86  71  60 W7        30.04F                  
BURLINGTON     SUNNY     86  70  58 SW6       30.05F                  
LAURINBURG     MOSUNNY   87  72  60 SW6       30.06F                  
$$
 
NCZ011-015-027-028-043-044-047-080-103-231700-
NORTHEASTERN NORTH CAROLINA
  
CITY           SKY/WX    TMP DP  RH WIND       PRES   REMARKS
ROCKY MT-WILSO CLOUDY    86  73  65 SW5       30.04F                  
GREENVILLE     MOSUNNY   84  73  70 CALM      30.05F                  
WASHINGTON     MOSUNNY   82  73  74 NW3       30.04F                  
ELIZABETH CITY MOSUNNY   83  74  74 SW7       30.02F                  
MANTEO         NOT AVBL                                               
CAPE HATTERAS  MOSUNNY   85  74  69 W7        30.05F                  
$$
 
NCZ078-087-090-091-093-098-101-231700-
SOUTHEASTERN NORTH CAROLINA
  
CITY           SKY/WX    TMP DP  RH WIND       PRES   REMARKS
LUMBERTON      PTSUNNY   85  73  67 W5        30.05F                  
GOLDSBORO      MOSUNNY   85  77  76 W7        30.02F HX  96           
KINSTON        MOSUNNY   86  75  70 SW5       30.04F HX  95           
KENANSVILLE    PTSUNNY   84  73  68 W6        30.06S                  
NEW BERN       MOSUNNY   86  74  67 VRB3      30.06F                  
CHERRY POINT   MOSUNNY   86  75  69 VRB3      30.05F HX  95           
BEAUFORT       SUNNY     84  76  76 SW8       30.04F                  
JACKSONVILLE   PTSUNNY   85  73  67 W3        30.04F                  
WILMINGTON     MOSUNNY   87  73  62 CALM      30.05F                  
$$


Return to Home page


Western Regional Climate Center, wrcc@dri.edu